Powrót do katalogu

STARLINK-37248

AktywnyŁącznośćVLEO
NORAD 68527·PAYLOAD·🇺🇸 United States

Wystrzelony Mar 30, 2026 z Cape Canaveral Space Force Station

Loading…

Następne Przeloty (najbliższe 24 godziny)

TLE

ŚwieżeSource: CelesTrak SupGP

Epoka: Sep 14, 2026, 20:59 UTC

1 68527C 26068V   26257.87479167 -.00016272  00000+0 -48085-3 0  2575
2 68527  53.1580 323.7888 0001145  85.2448 287.8810 15.34393105    12

Śledź STARLINK-37248 w czasie rzeczywistym z AllMySat

Download on the App Store